Regional Weather Roundup
Issued by NWS Green Bay, WI

Home | Current Version | Previous Version | Text Only | Print | Product List | Glossary On
Versions: 1 2 3 4 5 6 7 8 9 10 11 12 13 14 15 16 17 18 19 20 21 22 23 24 25 26 27 28 29 30 31 32 33 34 35 36 37 38 39 40 41 42 43 44 45 46 47 48 49 50
000
ASUS43 KGRB 260301
RWRGRB

NORTH-CENTRAL AND NORTHEAST WISCONSIN REGIONAL WEATHER ROUNDUP
NATIONAL WEATHER SERVICE GREEN BAY WI
1000 PM CDT TUE JUL 25 2017

WIZ005-009-010>012-018-019-260400-
NORTH CENTRAL WISCONSIN

CITY           SKY/WX    TMP DP  RH WIND       PRES   REMARKS
IRONWOOD       CLOUDY    71  63  75 S10       29.98R
MANITOWISH WTR NOT AVBL
ARBOR VITAE    NOT AVBL
EAGLE RIVER    NOT AVBL
LAND O LAKES   NOT AVBL
RHINELANDER    CLOUDY    68  63  84 S8        30.05F
PHILLIPS       CLOUDY    69  64  85 S10       30.01F
ANTIGO         NOT AVBL
TOMAHAWK       NOT AVBL
MERRILL        NOT AVBL
$$

WIZ013-073-260400-
NORTHEAST WISCONSIN

CITY           SKY/WX    TMP DP  RH WIND       PRES   REMARKS
IRON MOUNTAIN  CLOUDY    68  60  75 SE7       30.05S
MARINETTE      LGT RAIN  67  62  84 S10       30.09S
$$

WIZ017-030-035>037-045-260400-
CENTRAL WISCONSIN

CITY           SKY/WX    TMP DP  RH WIND       PRES   REMARKS
MEDFORD        NOT AVBL
WAUSAU         CLOUDY    71  63  75 S9        30.05S
MOSINEE        PTCLDY    70  64  83 S8        30.08S
MARSHFIELD     MOCLDY    69  63  81 S6        30.05F
WISC RAPIDS    CLOUDY    71  64  78 S6        30.07F
STEVENS POINT  NOT AVBL
WAUPACA        NOT AVBL
SHAWANO        RAIN      70  64  83 E5        30.08F
CLINTONVILLE   CLOUDY   N/A N/A N/A S5        30.07F
WAUTOMA        MOCLDY    71  63  75 S3        30.08S
$$

WIZ038-039-048-051-260400-
FOX VALLEY

CITY           SKY/WX    TMP DP  RH WIND       PRES   REMARKS
NWS GREEN BAY  CLOUDY    69  63  81 S6        30.10R
APPLETON       NOT AVBL
OSHKOSH        CLOUDY    70  61  73 SE8       30.08S
FOND DU LAC    CLOUDY    70  61  73 S9        30.09S
$$

WIZ022-050-052-260400-
EAST CENTRAL WISCONSIN

CITY           SKY/WX    TMP DP  RH WIND       PRES   REMARKS
EPHRAIM        NOT AVBL
WASHINGTON ISL NOT AVBL
STURGEON BAY     N/A     68  59  73 S12       30.12R
MANITOWOC      CLOUDY    70  61  73 S9        30.12R
SHEBOYGAN      CLOUDY    68  61  78 S7        30.12R
$$

LMZ563-521-522-541>543-260400-
LAKESHORE

STATION/POSITION TIME  TEMP    WIND        PRES    VSBY  WAVE
                       AIR SEA DIR/SP/G                  HT/PER
                 (UTC) (F)     (DEG/KT/KT) (MB)    (MI)  (FT/S)
SHEBOYGAN LKSHOR 0200   69     180/ 16/ 18 1019.3R
KEWAUNEE LKSHORE 0230   70     210/ 13/ 17 1019.2R
NORTHPORT PIER   0240   68     160/  7/ 11 1019.6R
N MID LAKE BUOY  0150   69 66  200/ 17/ 21 1018.9F         2/ 4
S GREEN BAY BUOY 0230   71 72  190/ 17/ 21 1018.8R
SISTER BAY LKSHO 0202   69     170/ 13/ 17   N/A
CHAMBERS ISLAND  0240   68     140/  6/ 14 1018.3R
MENOMINEE LKSHOR 0230   70     170/ 12/ 15 1018.5R
$$




USA.gov is the U.S. government's official web portal to all federal, state and local government web resources and services.